Tracking 29493 objects as of 8-Sep-2024
HD Live streaming from Space Station
objects crossing your sky now

FENGYUN 1C DEB

Track FENGYUN 1C DEB now!
10-day predictions


NORAD ID: 30633
Int'l Code: 1999-025ANQ
Perigee: 795.5 km
Apogee: 993.4 km
Inclination: 98.5 °
Period: 102.7 minutes
Semi major axis: 7265 km
RCS: 0.025 m2 (small)
Launch date: May 10, 1999
Source: People's Republic of China (PRC)
Launch site: Taiyaun Space Center, China (TSC)

Note: This is SATELLITE DEBRIS
Your satellite tracking list
Your tracking list is empty




NASA's NSSDC Master Catalog

Two Line Element Set (TLE):
1 30633U 99025ANQ 24251.68891723  .00005211  00000-0  31800-2 0  9991
2 30633  98.4625 143.4591 0136171 121.4544 305.5587 14.01874308895762
Source of the keplerian elements: AFSPC